Lid_Strength_Index
12 9 8 7 8 8 8 7 8 9 9 10 10 10 10 8 8 7 6 7 6 5 5 5 5 3 3 2 1 1 2 2 2 3 4 4 4 5 2 2 2 2 2
12 10 9 9 9 9 8 8 8 9 9 10 10 9 9 9 8 7 7 6 6 6 5 5 5 4 4 2 2 1 2 2 1 3 4 6 5 5 5 4 4 4 3
12 11 10 10 10 10 9 9 9 10 11 10 9 9 8 8 8 8 7 7 6 6 6 5 5 5 4 4 2 1 1 3 2 2 5 7 8 7 6 7 6 5 4
12 11 10 11 10 10 10 10 10 11 11 11 10 9 9 10 9 8 8 7 6 6 6 5 5 5 5 3 2 1 2 3 3 3 3 5 6 8 9 7 7 6 6
12 11 11 10 10 10 11 11 11 11 11 12 10 10 10 9 9 8 8 8 7 6 6 6 4 4 4 4 3 1 2 2 3 4 4 4 6 5 7 10 8 7 8
12 11 11 10 11 11 12 12 12 12 11 11 10 9 10 9 9 9 9 9 8 7 7 6 6 5 4 4 3 2 2 3 4 4 4 4 5 6 7 8 9 10 9
12 12 12 12 11 12 12 12 12 12 12 11 11 9 9 9 9 9 9 9 8 8 8 7 7 6 4 3 2 2 2 3 3 4 4 4 5 5 6 7 8 9 8
13 12 12 12 12 11 12 12 12 12 12 12 11 10 9 10 9 9 9 9 9 8 8 7 7 6 5 3 2 2 2 2 3 4 4 4 5 5 5 7 8 9 10
13 12 12 12 12 12 11 12 12 12 12 11 11 10 9 9 10 9 8 9 9 8 8 7 7 5 5 4 3 3 3 3 4 4 4 5 4 4 5 5 4 6 9
13 13 12 12 12 11 11 12 12 12 12 12 11 11 10 9 9 9 9 8 8 8 8 7 7 6 5 4 5 4 4 4 4 4 5 5 5 4 4 4 4 4 7
14 13 13 12 12 11 11 11 12 12 12 12 11 11 11 9 9 9 9 8 7 7 8 7 7 7 6 5 4 4 4 5 4 4 4 4 4 4 4 4 5 6 7
13 14 13 12 12 12 12 11 12 12 12 12 11 11 11 10 9 9 9 8 8 7 8 7 7 7 5 4 4 5 5 5 5 5 4 4 4 5 5 5 6 7 7
12 13 14 14 13 13 12 12 12 12 12 12 11 11 11 11 10 9 9 7 8 8 8 7 7 6 5 4 4 5 5 5 5 5 4 5 4 5 5 6 7 7 8
13 13 13 13 13 13 12 12 12 12 12 12 11 11 11 11 11 9 8 7 7 8 7 7 7 6 5 4 4 5 5 5 5 5 5 4 4 5 5 6 7 8 9
15 14 14 14 13 13 13 12 12 12 12 12 12 12 11 11 10 10 8 8 7 6 6 8 7 6 6 5 4 5 5 5 5 5 5 5 7 8 7 7 8 8 9
12 14 14 14 14 15 13 12 13 12 12 12 12 11 11 10 11 10 9 8 7 7 7 7 7 7 6 8 7 6 5 5 6 6 8 8 11 9 10 9 9 8 9
11 12 13 13 14 13 13 13 12 12 12 12 12 11 11 11 11 10 10 7 7 7 7 7 7 7 7 9 9 9 5 6 7 7 8 10 11 10 10 11 11 12 10
11 11 12 12 13 13 14 13 12 12 12 12 12 12 12 12 11 11 10 8 8 8 8 8 8 8 8 10 9 9 7 7 8 8 8 9 10 10 10 11 12 12 12
10 11 11 12 13 14 13 13 13 13 13 13 12 12 11 12 12 11 10 9 9 9 8 9 9 9 9 10 9 8 8 9 9 9 9 9 10 12 11 12 13 13 13
11 11 11 12 12 13 12 13 14 14 14 13 13 12 12 12 12 12 11 12 11 11 12 12 11 12 10 11 10 8 9 11 13 12 12 13 11 12 11 12 13 14 14
11 11 11 11 12 13 13 13 13 14 14 14 14 13 12 12 11 11 12 12 13 13 12 12 12 12 12 10 10 10 10 12 13 13 14 14 11 11 11 12 13 14 13
12 12 12 12 12 13 13 13 14 14 13 13 14 14 14 13 12 12 12 13 13 14 14 13 13 14 13 12 10 10 10 11 12 13 14 13 11 11 11 13 12 13 15
13 13 13 14 14 15 14 14 14 15 15 14 15 14 14 14 14 13 13 14 13 14 14 14 13 13 14 14 11 10 11 11 14 14 13 12 12 11 12 12 13 14 15
14 15 16 16 15 15 14 15 16 14 13 13 14 14 13 14 14 14 13 13 13 13 14 14 14 14 14 13 14 13 13 13 14 13 13 12 13 13 13 14 14 15 16
15 16 16 17 17 16 15 16 14 13 13 13 13 13 13 13 13 14 13 13 13 12 13 13 13 13 13 13 12 12 13 13 13 14 14 15 15 15 15 15 16 17 17
16 15 16 16 16 17 17 17 14 12 12 13 13 13 13 13 12 13 13 12 12 12 11 11 12 14 11 11 11 11 11 12 13 14 14 15 15 15 15 15 16 18 19